Theta_e
277 277 277 277 277 276 275 274 274 273 273 272 272 272 272 272 272 272 272 273 273 273 273 274 274 274 275 275 275 275 275 275 275 275 274 274 274 274 275 275 276 276 277 278 277 277 278 280 281 282 283 284 284 287 292 295 296 297 298 298 298 300 301 302 303 304 303 303 304 304 304 305 313 320 321 321 323 324 324 324 324 324 323 322 322
277 277 277 277 276 275 275 274 274 273 273 272 272 272 272 272 272 272 272 272 272 272 272 273 273 273 274 274 274 274 274 274 274 274 273 273 273 273 274 274 275 275 276 277 277 277 278 279 279 280 281 282 283 285 290 294 296 296 297 297 298 299 301 302 303 303 304 303 303 304 304 305 310 318 321 321 320 321 323 324 324 324 323 322 322
276 277 277 276 276 275 275 274 273 273 272 271 271 271 271 271 271 271 271 271 271 271 272 272 272 273 273 273 273 273 273 273 273 273 273 272 272 273 273 274 274 275 275 275 276 276 277 277 277 278 280 281 282 284 288 293 295 296 296 297 298 299 300 301 302 303 303 303 303 304 305 306 309 316 321 321 319 320 323 323 323 323 322 321 322
276 276 276 276 276 276 275 274 273 272 271 271 271 270 270 270 270 270 270 270 270 271 271 271 271 271 272 271 271 271 271 271 271 271 272 272 272 272 272 273 274 274 275 275 275 275 275 276 276 278 279 281 282 283 286 291 295 295 296 296 297 298 299 300 302 303 303 303 304 304 306 307 310 316 321 321 319 321 322 323 322 322 321 321 321
276 276 275 276 276 275 274 273 271 271 270 270 270 270 269 269 269 269 269 270 270 270 270 270 270 270 270 270 270 269 270 270 270 270 271 271 271 271 272 272 273 274 274 274 274 274 275 275 276 277 279 281 283 283 285 290 294 295 295 296 297 298 299 299 300 301 302 304 304 304 306 308 311 317 321 320 319 321 321 321 321 321 321 321 321
275 275 275 275 275 274 273 271 271 270 270 270 269 269 269 269 269 269 269 269 269 269 268 268 268 268 268 268 268 268 268 268 269 269 269 270 270 270 271 272 272 273 273 274 274 274 274 275 275 276 278 280 282 283 285 289 293 294 295 295 296 297 298 298 299 299 301 303 304 304 306 308 311 316 319 320 319 319 318 319 319 320 320 319 319
275 275 275 274 273 272 271 271 270 270 269 269 269 268 268 268 268 268 268 268 267 267 267 267 267 267 267 267 267 267 267 267 268 268 268 269 269 270 271 271 272 272 273 273 274 274 274 274 275 276 277 279 281 282 284 288 291 293 294 294 295 296 297 297 298 299 300 302 303 304 305 307 310 315 318 319 320 318 317 316 316 317 318 319 318
275 274 274 273 272 271 270 270 270 269 269 268 268 267 267 267 267 266 266 266 265 265 265 265 265 265 266 266 266 266 266 266 267 267 268 269 269 270 270 271 272 272 273 273 273 273 274 274 275 275 276 278 281 283 285 287 290 292 293 294 294 294 295 295 296 298 300 302 303 304 305 306 308 313 317 318 318 318 317 316 315 315 316 318 318
274 273 272 271 271 270 270 269 269 268 268 268 267 267 266 266 265 264 264 264 264 264 264 264 264 264 264 265 265 265 266 266 267 268 268 269 270 270 270 271 271 272 272 273 273 273 273 274 274 275 276 277 279 281 282 284 287 291 293 293 293 293 293 293 293 294 296 299 302 304 305 306 308 311 315 317 317 317 317 317 316 316 316 316 316
273 272 271 270 270 269 269 268 268 268 268 267 267 266 265 264 264 263 263 263 263 263 263 263 263 264 264 264 265 265 266 266 267 268 269 270 271 271 272 272 272 272 272 273 273 273 274 274 275 276 277 278 279 280 282 283 285 288 291 292 292 292 292 292 292 293 293 294 298 303 306 306 308 311 314 316 318 317 317 317 315 315 315 314 314
272 271 270 269 269 269 268 267 267 268 268 267 266 265 264 263 263 262 262 262 262 263 263 263 263 263 264 264 265 265 266 266 267 269 270 271 272 273 273 273 274 274 274 274 274 274 275 275 276 277 278 279 280 281 283 284 286 288 290 291 291 291 292 291 292 292 292 292 295 301 306 307 308 312 315 316 317 317 317 316 315 314 313 313 313
271 270 269 269 268 267 267 267 268 268 267 266 265 264 263 262 262 262 262 262 262 263 263 263 263 264 264 265 265 266 266 267 268 269 271 272 273 274 274 274 274 275 275 275 275 275 276 276 276 277 278 280 281 283 285 286 288 289 290 291 291 291 292 292 292 291 292 291 292 297 305 308 308 312 316 316 316 317 316 315 315 314 313 313 313
270 269 269 268 267 266 267 267 268 268 267 266 264 263 262 262 262 262 262 262 263 263 263 264 264 264 265 265 265 266 266 267 268 270 271 272 273 274 275 275 275 275 275 276 276 276 276 276 277 277 278 280 282 284 286 287 289 290 291 291 291 291 291 292 292 292 291 291 291 292 299 307 310 312 315 317 316 315 315 314 314 314 313 313 312
269 268 268 267 266 266 267 267 267 267 266 265 263 262 262 262 262 262 262 262 263 263 264 264 264 264 265 265 265 265 266 267 268 270 271 272 273 275 275 276 276 276 276 276 276 276 276 276 277 277 278 280 282 285 287 288 290 291 291 291 291 291 291 291 291 292 291 291 291 291 294 301 309 313 315 316 316 315 314 313 313 313 313 313 313
268 268 267 266 266 267 267 267 267 267 266 264 263 262 262 262 262 262 262 263 263 263 264 264 264 264 264 264 265 265 265 266 268 270 271 273 274 275 276 276 277 277 277 277 277 277 277 277 277 277 278 279 281 284 286 287 289 290 290 291 291 291 291 291 291 291 291 291 292 293 293 296 305 313 315 316 316 315 315 314 314 313 312 312 311
267 267 266 266 266 267 267 266 267 266 265 263 263 262 262 262 262 262 263 263 263 263 264 264 264 264 264 264 264 265 265 266 268 269 271 273 274 275 276 277 277 278 277 277 277 277 277 277 277 278 278 279 280 282 284 286 288 290 290 291 291 291 291 291 291 291 291 291 292 293 294 295 300 309 315 316 316 316 315 313 312 311 310 310 309
267 266 265 266 267 267 266 266 266 265 264 263 262 262 262 262 262 262 263 263 263 263 263 263 263 264 264 264 264 265 265 266 268 269 271 272 274 275 276 277 278 278 278 278 277 277 277 277 277 278 279 280 281 282 284 286 288 289 290 290 290 291 291 291 291 291 291 292 292 292 295 296 299 307 314 315 315 315 313 310 309 310 311 310 308
266 265 265 266 267 267 267 267 265 264 264 263 262 261 262 262 262 262 263 263 263 263 263 263 263 263 263 264 264 265 266 266 268 269 271 272 274 275 276 277 277 278 278 278 278 278 278 278 278 278 279 280 281 283 284 285 286 288 289 290 290 291 291 291 291 291 291 292 292 293 296 298 300 306 313 315 314 314 312 310 310 311 311 310 308
265 265 266 267 267 268 268 267 265 264 263 263 262 261 262 262 262 262 262 262 263 263 263 263 263 263 263 264 264 265 266 266 267 269 271 272 274 275 275 276 277 277 278 279 279 278 278 279 279 279 280 280 281 283 284 285 286 287 289 289 290 290 291 291 291 291 291 291 291 294 298 301 302 307 313 314 314 314 313 311 312 312 311 309 308
264 265 267 268 268 269 268 266 265 264 263 262 262 261 262 262 262 262 262 262 262 262 263 263 263 263 264 264 265 265 265 266 267 269 271 272 273 274 275 275 276 277 278 279 279 279 279 279 279 280 281 282 283 284 285 286 287 288 288 289 289 290 290 290 291 290 291 291 291 293 299 303 304 308 312 312 312 313 313 312 312 312 311 309 308
264 266 268 268 269 270 268 266 264 264 263 262 261 261 262 262 262 262 262 262 262 262 263 263 263 264 264 265 265 265 266 267 268 269 270 271 272 273 274 275 276 276 277 278 279 280 280 280 280 280 281 283 284 285 286 286 287 288 288 289 289 289 289 290 290 290 291 291 290 293 300 305 307 309 310 310 311 312 312 312 312 313 312 310 309
266 267 268 269 270 270 268 265 263 263 263 262 261 261 262 262 262 262 262 262 262 263 263 263 264 265 265 265 265 266 266 268 268 269 269 270 272 273 274 274 275 276 277 278 278 279 279 280 281 282 282 283 284 285 286 286 287 288 288 288 288 289 289 290 290 290 290 290 291 294 302 306 307 308 309 309 310 311 311 311 312 312 312 311 311
266 267 268 270 271 270 266 264 263 262 262 262 261 261 262 262 262 262 262 262 263 263 264 264 265 265 265 266 266 266 267 268 268 268 269 270 271 272 273 274 275 276 276 277 277 277 278 279 280 282 283 283 284 285 286 286 287 288 288 288 289 289 289 290 290 290 291 291 292 296 303 306 306 307 308 308 309 310 310 311 312 312 312 311 312
267 267 268 270 270 269 265 263 262 262 262 262 261 261 261 261 261 262 262 263 263 264 265 266 266 266 266 266 267 267 267 267 267 268 269 270 271 272 273 274 274 275 276 276 276 276 277 278 279 281 283 284 284 285 285 286 287 288 288 289 289 289 290 290 290 290 291 291 293 298 303 305 306 307 308 308 309 310 310 311 311 312 312 311 310
267 268 268 269 268 267 265 263 262 262 262 262 261 261 261 261 261 262 263 264 264 265 266 266 266 266 266 267 267 268 268 267 267 268 269 269 270 272 272 273 274 274 275 275 275 276 277 278 279 280 282 284 285 286 286 286 288 288 288 289 289 289 290 290 291 291 292 292 295 299 302 304 306 308 308 309 309 309 309 309 309 309 309 309 309
268 268 268 267 265 263 263 263 263 262 261 261 261 261 261 261 261 262 263 264 265 265 266 267 267 267 267 267 268 268 268 268 268 268 268 269 270 271 272 272 273 273 273 274 275 275 276 277 279 280 282 284 286 287 286 286 287 288 289 289 289 290 290 290 291 292 292 293 296 299 302 303 305 307 308 308 308 308 308 307 306 306 307 308 308
268 268 267 265 263 261 260 261 262 262 261 260 260 261 261 261 261 262 264 264 265 266 267 268 267 267 267 268 268 268 268 268 268 268 269 270 271 272 272 272 272 272 273 274 274 275 276 277 278 280 282 283 286 287 287 287 288 289 289 289 290 290 291 291 291 292 292 294 297 300 302 303 304 305 306 306 307 307 306 306 305 305 306 306 305
267 267 266 263 261 259 259 260 260 261 261 260 260 260 260 261 262 263 263 264 266 267 268 268 268 268 268 268 268 268 268 268 269 269 270 271 271 271 271 271 272 273 273 274 275 276 277 278 279 280 282 285 287 288 288 288 288 289 289 290 290 291 291 291 291 292 292 294 297 300 301 302 302 303 304 304 305 306 305 305 305 305 305 305 303
267 266 264 262 260 258 259 259 259 259 260 261 261 261 261 261 262 263 263 264 266 267 268 268 268 268 268 268 268 269 269 269 269 270 271 271 271 271 271 272 272 273 273 274 275 276 277 279 280 281 283 286 288 288 289 289 289 289 290 290 290 291 291 291 292 292 292 294 298 300 300 300 301 301 302 303 304 304 304 305 305 305 304 304 303
266 265 263 260 258 258 258 259 259 258 258 259 260 263 264 264 263 262 263 265 266 266 267 267 268 268 268 268 269 269 269 269 269 270 270 270 271 270 270 271 272 272 272 273 275 277 279 280 282 282 284 286 288 289 290 290 290 290 290 290 290 291 291 292 292 293 293 296 299 300 300 300 300 300 301 302 302 303 303 304 304 304 304 304 304
266 264 261 259 257 257 257 258 258 258 258 257 258 259 262 264 265 264 263 263 264 266 266 266 267 268 268 268 269 269 269 269 269 270 270 270 270 269 269 270 271 271 270 270 272 274 275 277 278 279 280 283 285 287 289 290 291 291 291 291 292 292 292 292 293 293 295 297 299 299 299 299 300 300 301 302 301 301 302 303 304 304 304 304 304
265 263 260 258 257 256 256 257 257 257 257 257 257 257 257 259 263 264 264 263 263 263 264 265 266 266 267 268 269 269 269 269 269 269 269 268 268 268 268 268 270 269 267 267 268 269 270 272 273 273 274 275 277 280 283 286 290 291 292 292 292 293 293 293 293 295 296 298 299 299 299 299 300 300 301 301 301 301 301 301 302 303 303 304 304
265 262 259 257 256 256 256 256 257 257 256 256 256 256 256 256 257 259 262 263 263 263 263 263 264 265 266 267 268 269 268 268 268 268 268 267 267 267 266 266 268 268 266 265 265 266 267 269 270 270 270 271 272 273 275 278 282 286 290 292 293 293 293 294 294 296 297 299 299 299 299 299 299 300 300 301 300 300 300 301 301 302 302 303 303
264 262 259 257 256 256 256 256 256 256 256 256 256 256 256 256 256 256 257 259 260 261 262 261 262 263 265 266 267 268 267 267 268 267 267 266 265 265 265 265 265 266 265 264 264 265 266 267 268 268 269 269 270 271 272 273 275 279 283 288 292 293 293 293 295 297 298 299 299 298 299 299 299 299 300 300 300 300 300 300 301 301 301 302 302
263 261 258 256 256 256 256 256 256 256 256 256 256 256 256 256 256 256 256 256 256 258 259 259 260 262 263 265 266 267 266 266 267 266 266 265 264 263 263 263 264 264 264 263 264 264 265 266 267 267 268 269 269 270 270 271 272 273 276 280 286 291 293 293 294 297 299 299 299 299 299 299 299 300 299 299 299 299 299 300 301 300 301 302 301
263 261 258 256 256 256 256 256 256 256 255 255 255 256 256 255 255 255 255 256 256 257 257 258 259 260 262 263 265 265 264 265 265 265 265 265 263 260 260 262 263 263 263 263 264 265 265 265 266 267 267 268 269 269 269 270 271 271 272 275 279 286 292 293 294 297 300 299 298 299 299 299 299 299 299 299 299 299 299 300 300 300 301 301 301
262 260 257 256 256 257 257 257 256 256 255 256 256 256 256 256 255 255 255 255 256 256 257 257 258 259 260 261 263 264 262 262 263 263 263 263 262 259 258 259 261 262 263 263 264 265 265 265 266 267 267 268 268 269 269 270 270 270 271 272 274 280 287 292 294 296 299 300 299 299 299 299 299 299 299 299 299 299 299 300 300 300 300 301 300
263 260 257 256 257 257 257 257 257 256 256 256 256 256 256 255 255 255 255 255 255 256 256 256 257 257 258 260 263 262 260 260 261 261 260 260 260 259 258 257 259 261 263 263 264 265 265 265 266 266 267 268 268 269 269 269 270 270 270 270 271 274 281 288 293 296 297 299 300 300 299 299 299 298 299 299 298 299 299 299 299 299 299 299 300
263 260 257 256 257 258 258 257 257 257 257 257 256 256 256 255 254 254 254 254 254 255 255 255 256 256 257 259 262 262 259 259 259 259 259 259 259 259 258 257 257 259 262 263 264 264 265 265 266 266 267 267 268 269 269 269 269 270 269 269 270 271 274 279 286 292 295 298 300 301 300 299 299 298 299 299 299 298 298 298 299 299 299 299 300
262 261 259 257 258 258 258 258 258 258 257 256 256 255 255 254 253 253 253 253 254 254 254 255 255 256 256 260 263 261 258 257 258 258 258 258 258 258 258 257 257 258 261 263 263 264 265 265 266 266 267 267 268 268 269 269 269 270 269 269 269 270 270 272 276 283 289 294 298 299 299 299 299 298 298 298 299 298 298 298 298 299 298 299 299
261 260 259 258 258 258 259 259 258 257 256 255 255 254 254 253 253 253 253 253 253 253 254 254 255 256 257 259 262 260 257 256 258 258 258 258 257 257 257 257 257 258 260 262 263 264 264 265 266 266 267 267 268 268 269 269 269 269 270 269 269 269 269 269 271 275 280 286 292 297 298 298 299 298 298 298 298 298 298 298 298 298 298 299 299
260 260 259 258 258 259 259 259 258 257 256 256 255 254 253 253 253 253 252 252 252 253 253 254 255 256 257 258 259 259 257 256 257 257 258 258 257 257 257 257 257 258 259 261 263 263 264 265 266 266 267 267 268 268 268 269 269 269 270 270 270 269 269 269 270 272 274 278 285 292 296 298 298 298 298 298 298 298 298 298 298 298 298 298 298
260 259 259 259 259 259 259 258 258 258 257 256 255 254 254 253 253 253 252 252 252 252 252 253 254 255 256 257 257 257 256 256 256 257 257 258 257 257 257 258 258 258 259 261 262 263 264 264 265 266 267 267 267 268 268 269 269 269 270 270 270 270 269 269 270 271 272 274 279 285 292 296 298 298 298 298 298 298 298 297 297 297 298 297 297
259 259 259 259 259 259 259 258 258 258 257 256 255 254 254 254 254 253 252 252 252 252 252 252 252 253 254 255 256 255 255 255 256 256 257 257 258 258 259 259 259 259 259 260 262 263 263 264 265 266 267 267 267 268 268 269 269 269 270 270 270 270 270 270 270 271 271 272 275 281 287 293 296 297 298 298 298 298 297 297 297 297 297 297 297
259 258 258 259 259 258 258 258 258 258 257 257 256 255 254 254 254 254 253 252 252 252 252 252 252 252 253 253 254 254 254 255 255 256 256 257 258 258 259 260 260 259 259 260 261 262 263 264 264 265 266 267 267 268 268 269 269 269 270 270 270 270 269 270 270 271 272 273 274 278 284 291 294 296 297 298 298 298 297 297 297 297 296 296 296
258 258 258 259 258 258 258 258 258 258 257 257 256 256 255 255 254 254 253 252 252 252 253 253 253 252 253 253 253 253 254 254 255 256 256 257 257 258 259 260 261 260 260 260 261 262 263 263 264 265 266 267 267 268 268 269 269 270 270 270 270 270 269 270 270 271 272 273 275 278 284 291 293 295 296 296 297 297 297 297 297 297 296 296 296
258 258 258 258 258 258 258 257 257 257 257 257 256 256 255 255 254 254 253 253 252 252 253 253 253 253 253 253 253 253 254 254 255 256 257 257 258 259 260 261 261 261 261 261 261 261 262 263 264 264 266 267 267 267 268 268 269 269 270 270 270 270 269 269 270 271 272 274 275 279 285 291 293 294 294 295 295 296 297 296 297 297 297 296 296
257 258 258 258 258 258 257 257 257 257 257 257 256 255 255 255 254 254 254 253 253 253 253 254 254 254 253 253 253 254 254 255 256 257 258 258 259 259 260 261 261 262 262 262 262 261 262 263 263 264 265 266 267 267 268 268 269 269 269 270 270 269 269 269 270 271 272 273 275 278 283 288 291 292 293 294 294 294 294 295 295 296 296 296 296
257 257 257 257 257 257 257 257 257 257 257 256 256 256 255 255 255 254 254 253 253 253 253 254 254 254 254 254 254 254 255 255 256 257 258 258 259 260 261 261 262 262 262 262 262 262 262 263 263 264 265 266 267 267 267 268 269 269 269 270 269 269 269 269 270 270 271 272 273 275 277 280 283 285 288 290 292 293 293 294 294 294 294 294 294
257 257 257 257 257 257 257 257 257 257 257 256 256 256 255 255 255 255 254 253 254 254 254 254 254 254 254 254 254 255 255 255 255 256 257 258 259 260 261 261 262 262 262 262 262 262 262 263 263 264 265 266 267 267 267 268 268 269 269 269 269 269 268 269 269 269 270 270 271 272 273 274 276 278 279 282 284 287 289 290 292 292 293 293 293
257 257 257 257 257 257 257 257 257 257 256 256 256 256 255 255 255 254 254 253 253 254 254 254 254 254 255 255 255 255 255 255 256 256 257 258 258 259 260 261 261 261 262 263 263 263 262 263 263 264 264 266 267 267 267 267 268 268 269 269 269 268 268 268 268 268 269 269 269 269 270 271 272 273 274 275 276 278 280 282 285 287 289 290 291
Wind_Speed
11 13 14 16 19 20 21 22 23 24 25 25 26 27 27 28 28 28 29 31 31 32 33 33 33 33 32 30 30 29 29 26 22 19 20 24 28 30 31 32 33 33 32 30 28 29 31 33 32 30 30 32 32 36 35 32 30 27 26 27 27 27 24 16 11 12 18 24 27 29 32 33 34 39 43 43 47 49 47 44 42 45 49 50 56
11 13 15 17 20 21 22 24 24 25 26 27 27 28 28 29 29 31 32 33 32 31 32 32 31 30 30 29 28 29 30 29 24 19 19 24 28 30 30 31 34 33 32 31 31 30 30 31 31 30 31 32 32 35 36 32 29 27 26 26 27 27 26 21 14 10 14 20 25 27 31 32 34 38 43 44 48 49 47 46 46 48 51 51 55
12 14 16 18 20 22 23 24 25 26 27 28 30 31 31 32 32 33 35 34 31 29 29 29 30 30 30 29 28 29 31 30 27 25 23 24 27 29 29 30 33 34 33 33 32 32 31 32 32 31 31 32 32 34 35 31 28 28 28 28 27 26 27 26 20 12 11 17 22 25 27 30 35 40 44 46 50 51 48 48 49 50 50 51 55
12 14 17 19 21 23 24 25 26 27 28 30 31 32 33 34 34 35 35 32 28 27 27 27 29 29 28 28 29 31 31 30 31 30 28 27 28 30 30 30 32 34 34 33 32 32 33 33 32 30 29 31 32 33 33 30 27 27 27 27 28 27 28 28 25 20 15 15 19 24 26 28 34 39 45 45 47 51 49 48 51 52 51 52 55
13 15 18 21 22 23 25 26 27 28 29 30 32 32 32 33 34 33 31 27 25 26 27 27 28 28 28 29 32 33 32 31 32 33 31 30 31 32 32 32 33 34 35 34 33 33 34 34 33 31 29 29 30 30 32 30 27 25 24 25 26 27 26 26 26 26 22 16 17 23 25 27 33 36 45 46 41 43 45 48 52 53 52 52 52
13 16 19 21 23 24 25 25 26 28 29 30 31 31 31 32 31 28 25 24 25 26 27 28 28 30 31 32 32 33 33 32 33 33 33 33 32 33 33 33 34 35 35 34 33 33 34 35 34 31 30 30 30 30 32 30 26 23 22 23 24 24 24 26 26 26 26 23 21 21 22 26 31 30 39 48 42 37 36 40 47 52 53 50 47
14 17 19 21 22 23 24 25 26 27 28 29 30 30 31 29 27 24 23 24 27 28 29 29 29 30 32 33 32 33 34 33 33 34 34 33 33 33 33 33 33 34 33 33 31 32 34 35 33 32 32 32 33 34 34 32 28 25 24 23 23 23 22 23 24 24 25 24 21 20 22 26 29 25 32 47 46 41 39 32 30 38 47 48 46
15 17 19 20 21 22 23 24 25 26 26 27 29 30 31 29 27 25 24 26 27 27 28 29 31 31 32 33 34 34 34 34 33 33 33 32 32 33 33 33 33 32 32 31 30 31 33 34 34 34 35 35 36 36 35 31 27 25 24 23 21 20 19 19 19 19 21 20 18 19 22 25 28 27 29 38 32 31 41 37 27 33 41 45 49
15 17 18 19 20 21 22 24 24 25 26 26 28 30 30 30 29 27 25 25 26 27 28 29 31 32 33 33 33 33 33 32 31 31 31 31 31 31 32 32 32 32 32 32 31 32 33 34 36 36 36 38 40 42 42 39 33 27 24 23 22 21 21 20 17 16 15 14 14 17 17 17 22 23 21 26 24 26 39 41 34 38 43 41 46
14 16 17 18 19 20 21 22 23 25 26 27 29 30 30 31 31 29 28 28 28 29 30 29 29 32 33 33 32 31 31 31 31 31 31 32 32 32 30 29 28 28 30 31 31 31 32 33 35 36 38 39 41 43 45 44 41 36 30 26 24 23 21 19 17 15 12 10 12 15 13 12 20 24 20 27 35 38 41 38 32 35 38 32 31
13 14 15 16 18 19 20 21 23 25 27 29 30 31 31 31 31 31 31 31 31 31 31 32 32 32 32 32 32 31 31 31 32 33 33 34 34 34 32 31 28 27 28 29 28 29 30 32 33 34 35 37 39 40 41 41 40 40 38 34 31 29 27 21 17 16 13 11 15 17 14 12 21 30 30 34 39 40 40 38 34 32 27 19 16
12 13 14 15 16 17 18 21 24 27 28 30 31 31 31 31 31 31 32 32 32 31 32 35 36 33 30 30 31 32 32 33 33 34 34 34 35 34 33 31 30 29 27 27 27 29 31 32 32 31 32 35 36 36 37 38 39 39 40 39 36 34 33 29 24 20 17 14 14 18 18 19 25 32 35 37 36 38 40 39 39 36 28 20 16
10 11 12 13 14 16 18 22 25 27 29 30 30 30 31 31 30 31 32 32 32 32 32 33 31 28 28 30 31 32 33 33 33 34 35 35 36 35 31 28 30 32 31 28 27 29 32 31 30 31 32 34 35 35 34 34 35 36 37 38 37 35 33 32 29 27 26 22 18 23 28 27 29 35 41 44 39 37 36 35 39 41 34 28 29
8 10 11 12 13 16 19 22 24 27 28 29 30 30 30 30 30 30 31 31 31 31 30 28 27 27 29 30 31 32 32 33 34 35 36 36 37 36 32 29 30 32 33 31 29 31 34 33 31 31 32 33 33 32 31 30 30 30 31 33 33 32 30 30 30 31 32 31 29 33 39 36 34 41 48 51 49 43 39 39 42 43 41 40 41
7 9 10 11 14 17 20 22 24 26 28 29 29 30 29 29 30 29 29 29 29 28 27 27 28 29 28 29 31 33 33 34 35 36 37 36 36 35 33 32 30 28 28 28 29 32 34 35 34 32 33 34 33 30 28 27 27 27 28 28 29 29 30 31 33 34 33 34 36 39 44 45 41 44 50 56 56 53 53 54 52 47 43 38 36
6 8 10 11 15 18 19 21 23 26 27 28 29 29 29 29 29 29 28 27 27 27 27 28 28 29 30 30 32 33 34 34 35 37 37 36 34 33 31 30 30 30 31 30 30 31 31 32 32 32 33 36 36 34 31 29 27 26 25 25 25 26 29 32 33 35 37 39 40 41 44 48 48 46 52 60 59 58 55 48 43 41 34 25 23
5 8 10 12 15 17 18 20 22 24 26 27 28 28 29 29 28 27 28 28 28 28 28 28 28 30 32 32 32 34 34 34 35 36 36 34 33 31 29 28 28 32 36 36 36 35 34 33 33 32 33 35 36 35 33 30 29 26 24 23 23 25 29 31 33 37 40 42 44 47 49 52 54 50 54 62 60 57 46 31 33 38 28 17 14
5 8 10 13 15 16 17 19 20 22 24 26 27 28 28 28 27 27 27 28 29 29 29 29 30 30 31 33 33 33 34 36 36 35 34 33 32 30 29 27 26 29 32 34 35 35 33 33 34 34 33 33 34 34 32 31 29 27 24 23 22 24 28 29 30 34 39 40 43 48 51 52 54 52 56 61 59 58 49 37 42 41 24 14 14
6 9 11 13 14 15 16 17 18 20 22 24 25 27 27 28 27 27 27 27 28 29 29 29 30 31 31 33 33 33 36 39 37 34 33 33 32 31 29 25 24 25 24 25 29 30 29 29 31 34 35 34 34 34 34 33 31 27 24 22 21 23 27 27 27 30 33 36 39 43 43 45 50 51 56 61 59 62 60 55 56 47 27 20 22
7 9 11 12 13 14 15 16 17 18 21 23 24 25 26 27 28 28 28 27 27 28 28 28 30 31 31 32 32 34 37 37 34 31 32 33 32 32 29 25 23 24 24 24 26 27 28 28 29 31 33 34 36 36 35 34 32 29 27 24 22 24 26 26 26 28 30 33 38 42 38 39 45 48 53 57 59 63 62 60 60 55 42 32 29
7 9 11 12 13 13 14 15 16 17 19 22 24 24 25 26 28 28 29 28 28 28 28 29 30 30 31 31 32 33 32 30 29 30 33 34 33 32 29 26 24 25 26 25 23 22 24 26 28 29 30 32 33 34 33 33 31 30 29 29 29 28 27 26 27 29 30 32 37 39 34 36 41 43 48 52 55 57 58 58 59 58 54 46 38
8 10 10 12 13 13 14 15 16 17 19 21 23 24 25 25 26 28 28 27 27 27 28 29 28 30 31 30 28 28 28 27 28 31 34 33 32 31 30 30 29 28 26 23 22 22 23 23 25 28 29 30 32 33 33 32 32 32 32 32 33 33 31 29 27 28 29 30 32 32 29 33 35 37 43 48 50 52 53 56 58 58 59 60 58
9 10 11 11 12 12 14 15 16 17 19 20 22 24 24 24 26 27 26 26 26 26 27 28 28 28 28 26 26 27 27 28 30 32 33 32 32 33 33 32 32 30 26 24 24 25 26 26 26 27 28 29 31 32 33 33 32 32 32 32 32 32 31 28 26 27 28 28 28 25 23 29 29 31 36 42 47 51 52 54 56 55 56 61 68
9 10 11 11 11 12 14 16 16 17 18 20 22 23 24 24 25 25 24 24 24 24 26 27 25 24 25 25 26 27 28 30 31 31 31 32 33 34 33 33 34 32 29 27 26 27 27 28 28 29 29 29 30 32 33 32 31 30 31 31 29 29 28 26 25 26 25 23 21 18 19 26 30 33 38 43 48 52 54 55 54 52 50 51 52
9 10 11 11 10 12 14 16 17 17 18 20 21 22 24 24 24 24 22 22 23 25 26 26 24 23 24 24 26 30 32 33 31 29 31 33 34 33 34 34 33 32 30 29 28 28 30 32 33 33 31 30 30 32 32 31 31 30 30 29 28 27 26 26 26 24 20 18 17 16 19 28 35 40 45 50 51 50 49 48 43 39 37 36 35
9 9 10 10 10 12 14 16 18 18 18 20 20 21 23 23 23 22 20 20 25 28 27 24 24 25 25 24 26 27 27 26 29 30 31 32 31 32 34 33 31 31 30 29 29 29 30 31 30 30 29 28 27 27 28 28 28 28 27 27 27 26 26 25 24 21 17 16 17 18 22 30 37 42 44 46 45 43 43 41 36 33 33 34 33
8 9 10 10 10 12 14 16 18 19 20 20 20 20 21 21 21 21 20 22 27 29 26 25 27 27 26 25 26 26 23 24 29 32 31 30 30 31 32 31 30 29 27 25 25 26 27 28 27 27 27 27 23 21 24 26 25 24 24 25 26 26 26 25 24 21 18 18 19 22 23 25 29 33 37 39 39 41 44 44 39 35 35 36 31
8 9 9 9 10 12 13 14 16 19 21 22 21 19 19 20 20 20 21 24 28 28 27 29 31 31 28 25 26 29 29 29 31 33 33 34 34 32 31 30 29 27 26 26 27 27 26 26 25 24 22 20 16 15 19 22 21 21 22 23 24 25 26 25 24 22 21 21 21 21 20 18 20 26 31 35 37 40 43 43 40 37 36 33 24
9 9 9 9 10 11 13 13 14 16 20 23 23 19 16 16 18 20 22 23 25 27 28 30 31 31 29 27 26 26 28 31 36 38 38 37 35 33 31 30 29 27 29 31 30 26 22 19 17 17 16 14 11 10 12 15 17 19 21 22 23 23 23 22 20 19 21 22 19 19 19 18 20 25 28 30 33 38 42 41 39 38 36 31 23
9 9 8 9 10 12 13 12 13 14 15 19 22 22 19 16 16 18 22 23 23 24 25 27 29 30 30 30 29 28 29 34 39 40 38 36 36 34 31 29 30 31 32 31 24 17 13 11 10 11 13 11 9 7 8 10 12 14 18 20 21 21 20 20 19 18 20 21 21 22 22 21 21 24 27 27 28 33 39 41 41 38 34 29 23
9 8 8 8 9 10 11 12 12 13 13 14 16 20 22 22 22 21 21 24 25 25 24 25 28 30 30 31 32 33 34 37 39 39 39 38 37 35 31 29 31 33 32 28 21 16 13 9 7 10 12 11 10 10 10 9 9 11 13 15 17 18 18 18 18 18 20 21 21 22 23 23 23 25 27 29 29 31 33 36 37 37 34 30 24
8 7 6 7 8 9 10 10 11 12 13 13 14 14 17 20 23 26 27 26 24 23 24 26 28 30 31 31 33 35 37 38 39 40 40 39 37 35 33 31 30 34 38 35 25 19 18 14 11 13 15 13 14 16 16 14 12 12 12 11 12 14 15 17 18 19 21 21 20 21 23 24 25 27 29 30 29 28 28 28 31 34 33 31 28
7 6 5 6 8 9 8 9 10 10 12 13 14 14 14 15 18 23 28 31 30 26 25 26 28 30 31 32 33 37 38 38 39 40 41 41 39 35 32 30 31 36 42 36 23 17 19 17 15 16 16 14 16 18 18 19 19 17 14 13 13 14 15 18 20 20 22 22 21 22 24 26 26 26 27 29 29 27 26 27 29 30 28 24 24
7 6 5 5 7 7 7 7 8 9 10 12 13 14 15 16 16 18 22 26 29 31 32 32 31 31 31 33 35 39 39 37 38 39 40 43 43 35 31 35 42 44 42 35 23 18 19 18 17 18 18 17 18 18 18 19 20 20 20 17 16 16 17 19 20 19 21 22 21 22 24 25 26 24 23 25 27 26 26 26 26 24 22 20 20
7 6 5 3 5 6 5 6 7 9 10 11 13 14 16 17 18 18 18 19 21 25 30 35 35 33 32 34 37 40 39 37 36 38 39 42 46 42 35 36 40 40 38 37 31 24 20 18 17 17 18 17 17 18 18 20 20 20 20 21 20 18 17 18 18 17 20 21 20 22 24 24 26 27 25 24 24 22 23 25 25 25 25 23 21
7 7 5 3 3 4 5 6 7 9 9 10 13 14 16 17 18 19 20 20 20 21 25 31 34 34 34 35 36 39 39 35 34 36 36 39 48 50 39 28 27 29 31 32 31 27 25 24 23 22 21 21 22 22 20 19 21 21 21 22 22 21 18 17 17 15 18 21 20 22 25 25 26 28 26 24 24 25 25 26 27 27 28 27 24
7 7 5 3 2 4 6 7 8 9 9 12 14 16 17 18 19 19 20 20 21 21 24 27 30 31 34 37 38 39 39 35 34 38 41 41 48 52 43 30 24 24 27 29 28 26 27 28 28 29 28 27 29 30 26 23 23 23 23 23 24 24 21 18 18 15 15 20 22 23 24 25 26 28 26 23 24 25 26 28 27 26 29 30 28
7 7 5 2 2 4 6 8 10 11 12 14 16 17 18 19 19 20 20 21 21 21 24 26 26 26 31 35 37 39 40 39 38 42 44 43 43 46 48 43 33 24 24 28 28 26 27 28 29 29 28 28 29 29 29 28 27 25 25 25 24 25 25 18 16 16 13 14 19 23 25 25 26 28 27 25 24 24 25 27 26 24 26 28 26
7 7 5 1 1 4 7 9 11 12 14 15 17 17 18 19 20 20 20 21 21 21 23 24 24 26 30 33 35 36 37 36 35 35 37 39 40 41 46 50 43 32 26 29 30 28 27 29 30 29 28 28 29 28 27 29 29 28 27 25 22 23 26 23 14 12 12 11 14 20 24 25 26 28 27 26 25 26 26 27 27 25 23 25 26
8 7 6 4 3 4 6 9 11 12 14 15 16 17 17 17 18 18 19 19 20 21 22 22 24 27 30 31 32 33 30 28 29 30 32 35 39 41 44 49 47 38 30 29 31 30 29 29 30 31 30 30 30 29 29 28 28 28 28 27 23 20 22 25 22 15 9 9 12 17 21 24 26 27 26 25 26 28 28 28 29 29 28 28 28
9 8 7 6 5 5 7 9 10 12 13 13 14 15 16 15 16 16 17 18 19 20 22 22 24 28 30 30 31 31 28 26 27 30 32 34 37 42 48 53 50 40 32 31 33 33 32 31 31 32 32 32 31 31 31 30 29 29 28 27 26 24 24 26 26 23 17 10 8 14 19 23 25 25 25 26 26 28 29 29 30 30 30 29 28
9 8 7 7 6 6 8 9 10 11 12 13 14 14 14 15 15 16 16 17 18 20 21 23 26 28 30 30 30 31 30 29 29 31 33 36 38 42 48 53 50 41 34 32 33 34 33 33 32 32 34 34 34 33 33 32 32 30 28 27 27 26 26 26 26 25 22 17 11 10 16 22 25 26 27 28 27 26 26 27 28 30 29 27 27
9 8 7 7 6 7 8 9 9 10 12 13 14 14 14 14 15 15 16 16 17 18 20 22 25 28 30 30 31 32 32 32 32 32 33 36 39 42 47 52 51 44 38 35 34 35 35 34 33 33 34 35 35 34 33 33 33 31 30 29 28 27 26 28 29 27 23 19 15 11 12 18 24 26 26 26 26 26 26 26 26 27 28 27 27
9 8 7 7 7 7 8 8 9 10 11 12 12 13 14 15 15 16 16 16 17 18 20 21 23 26 28 30 32 33 32 32 32 33 33 36 40 43 48 53 53 49 45 40 36 36 36 35 35 35 36 37 37 36 35 34 34 33 31 31 30 29 29 30 30 28 24 20 17 15 12 15 21 24 24 25 26 25 25 25 26 25 25 25 25
9 8 8 7 7 7 7 8 9 9 10 11 12 13 14 15 15 16 16 17 17 18 20 21 22 23 26 28 29 31 31 31 32 32 33 36 39 42 47 52 53 50 48 45 39 36 37 38 37 37 38 39 40 39 38 37 37 36 35 33 31 31 32 31 29 27 24 20 16 15 13 13 17 21 22 25 27 26 24 25 27 26 24 24 24
9 8 8 7 7 8 7 8 9 9 10 11 12 13 14 14 15 15 15 16 17 18 20 22 23 23 24 26 27 29 30 30 31 32 33 36 38 41 45 50 51 51 50 47 41 38 39 40 39 38 38 40 41 41 41 40 40 39 39 37 36 35 35 32 30 27 25 21 16 12 12 13 15 17 19 22 25 26 25 26 26 26 25 25 25
9 8 8 8 7 8 8 8 8 9 9 10 11 12 13 13 13 14 14 15 16 18 19 21 22 23 24 25 26 27 28 29 30 31 33 35 38 40 44 48 50 50 50 48 44 40 40 42 41 39 39 40 42 43 43 43 43 43 43 42 42 42 41 38 35 32 28 25 19 11 4 11 15 16 17 19 20 21 21 22 23 24 26 26 25
8 8 8 7 7 7 7 8 8 8 9 10 10 11 11 12 12 13 14 14 16 17 19 21 22 23 24 24 25 26 27 28 29 31 32 34 37 39 42 46 47 48 49 49 47 43 42 42 42 41 40 41 43 44 44 44 45 45 46 46 46 47 47 45 42 37 33 30 26 20 11 8 11 13 16 18 19 18 18 18 19 21 22 22 23
8 7 7 7 7 7 7 7 7 8 8 9 9 10 10 11 11 12 13 14 15 16 18 20 21 22 23 24 25 26 27 28 29 30 31 33 35 37 39 43 45 46 48 49 47 44 42 43 44 42 40 41 43 45 46 46 47 48 49 49 49 49 51 51 48 43 38 35 32 29 24 20 17 14 12 12 15 17 17 17 18 19 19 17 19
8 7 7 7 6 6 6 6 6 7 7 8 8 9 9 10 11 11 12 13 14 16 17 18 20 21 22 23 24 25 26 27 28 29 30 31 33 34 37 39 42 44 46 47 46 43 42 43 44 43 41 40 43 45 47 47 48 49 50 51 51 51 52 52 51 48 44 40 37 34 32 29 27 26 23 18 14 12 12 13 14 17 18 17 18
8 7 6 6 6 5 5 5 5 6 6 7 7 8 8 9 10 11 12 12 14 15 16 17 18 19 20 21 23 24 25 26 26 27 28 29 30 32 34 36 39 42 43 44 44 43 42 43 44 44 43 40 40 44 47 47 48 51 52 52 53 53 52 52 52 51 48 44 41 39 37 35 34 33 30 27 23 20 18 16 14 13 13 13 15
Wind_Direction
347 343 342 341 338 335 331 328 326 323 322 319 315 313 313 311 309 305 301 298 296 294 292 290 289 287 285 282 281 281 280 278 272 265 262 266 268 268 267 267 266 267 268 268 270 274 274 273 272 271 274 276 279 282 271 252 247 249 250 255 256 253 253 252 257 270 257 242 242 247 254 267 259 226 205 199 200 199 197 193 187 183 182 180 177
340 339 341 341 336 333 329 328 328 325 322 320 317 317 316 313 311 307 303 301 299 294 291 291 289 286 283 281 281 282 281 279 276 270 265 266 268 268 267 266 266 265 266 267 270 273 275 277 279 278 278 276 276 280 274 258 249 252 250 249 252 249 246 248 249 262 268 249 241 246 250 258 260 232 204 193 193 191 189 191 190 187 185 182 179
337 340 340 338 334 332 330 330 329 325 323 322 321 321 319 316 314 311 307 305 301 294 290 290 289 287 284 283 283 283 281 278 277 274 271 269 269 269 266 264 265 264 264 267 269 271 274 277 278 276 275 275 274 277 276 264 249 249 252 248 248 249 245 247 250 250 264 259 246 245 247 252 254 233 205 191 188 184 181 184 185 184 183 180 177
340 341 338 336 334 333 332 331 329 326 324 322 321 321 319 317 316 314 311 304 297 294 293 292 291 289 286 285 285 284 281 279 279 276 273 271 271 271 269 266 265 264 264 266 266 269 272 272 273 274 272 271 270 274 277 268 249 244 251 251 250 251 248 248 254 254 257 261 250 245 244 250 253 231 203 190 185 180 177 178 178 178 177 176 174
341 340 338 337 336 335 333 330 327 325 324 323 322 320 317 316 315 312 309 301 296 298 298 296 295 291 288 287 286 284 281 280 280 278 273 271 271 272 271 268 267 265 265 265 265 267 269 269 271 272 270 267 267 271 273 267 253 243 247 254 255 253 250 250 255 258 259 257 251 249 244 247 253 230 197 184 179 176 175 173 172 172 172 173 173
342 342 342 340 337 333 331 328 325 324 324 323 321 318 315 314 313 308 303 300 301 302 300 298 296 292 290 288 286 284 282 280 279 277 275 273 272 271 270 268 268 266 266 266 264 265 268 268 268 267 266 264 265 268 270 267 258 248 247 255 259 260 257 254 255 258 261 260 251 249 245 243 250 233 193 178 172 169 168 166 166 166 165 167 170
344 346 345 340 336 331 327 326 325 324 323 319 317 316 316 315 311 306 304 304 304 304 301 298 296 293 291 289 287 285 284 282 279 276 275 273 271 271 269 267 268 267 266 265 264 266 269 268 267 266 265 263 262 263 263 263 260 255 251 251 256 261 260 258 256 254 255 256 249 245 244 243 248 238 193 175 169 166 162 158 157 159 159 162 166
348 349 345 339 333 328 325 326 325 323 319 317 317 320 320 317 313 310 308 307 305 303 301 298 296 295 291 289 288 286 284 283 280 277 275 273 270 268 267 266 267 267 267 265 263 265 268 267 267 267 265 263 262 260 259 260 260 255 246 241 247 257 264 269 271 265 259 256 247 239 239 241 246 238 196 173 168 166 163 158 153 154 157 162 168
352 350 344 337 331 328 328 327 324 321 320 321 322 323 323 321 318 315 312 309 306 303 301 298 297 296 293 291 288 286 284 282 279 278 276 274 271 267 265 263 262 262 264 265 264 263 263 264 265 265 264 263 263 262 261 261 261 256 246 239 241 250 263 269 269 273 271 265 253 239 235 237 238 233 203 175 167 164 164 162 157 157 158 161 168
354 348 341 335 332 332 330 325 323 325 327 328 328 327 326 324 321 318 315 312 309 307 304 300 296 296 295 293 289 286 284 281 280 280 278 277 275 271 267 264 258 256 257 259 261 260 259 262 265 265 264 263 262 261 260 258 257 254 247 241 240 245 254 257 256 261 263 267 267 247 231 233 230 223 204 179 170 165 164 163 157 155 155 153 161
353 344 336 335 335 332 327 324 328 333 335 334 332 329 327 325 323 321 319 316 314 312 308 303 300 297 294 293 291 288 285 283 283 284 282 280 278 275 274 271 267 261 257 256 258 261 264 267 269 269 267 264 261 259 258 255 251 249 246 245 245 245 245 246 250 255 253 260 270 255 231 223 227 218 198 181 174 168 164 162 155 152 153 150 152
349 338 335 337 334 327 325 331 338 340 338 336 333 330 328 327 326 324 321 319 317 314 310 307 304 299 295 295 294 291 288 287 288 288 286 283 281 279 277 275 273 270 264 259 259 263 270 272 271 271 269 267 264 259 256 254 250 247 246 245 244 243 243 244 246 252 256 257 266 267 247 218 216 216 197 179 174 168 163 161 160 158 160 161 159
341 334 337 333 326 327 334 342 344 341 339 337 334 332 331 328 327 325 322 320 317 314 312 309 305 301 300 300 298 296 294 292 292 291 289 286 283 281 278 274 271 269 267 264 260 264 270 271 270 269 268 268 266 261 256 254 252 248 244 241 238 236 239 242 245 251 258 257 258 269 260 229 211 211 196 178 170 167 163 163 165 164 164 167 167
336 332 332 327 327 337 345 347 345 341 340 338 335 334 331 328 327 326 323 321 318 315 314 312 309 307 306 303 301 299 297 297 296 295 292 290 286 284 283 277 268 264 263 260 257 260 265 266 267 267 268 269 268 262 255 253 252 246 239 236 234 234 238 243 249 255 257 256 256 261 263 250 222 208 195 178 171 170 167 166 169 170 169 171 168
334 328 324 328 339 347 350 348 345 342 341 339 335 333 331 328 327 326 324 320 317 315 313 312 311 310 308 307 305 303 300 299 300 299 297 295 292 289 286 279 271 266 266 263 259 259 260 260 262 263 265 268 269 268 266 262 255 245 238 237 236 240 245 247 252 256 256 257 257 257 262 261 241 215 195 180 175 174 173 172 171 168 163 159 157
325 325 327 337 347 351 351 348 345 344 341 338 334 331 329 328 327 326 323 319 316 314 312 312 311 310 310 309 306 304 303 303 302 301 299 298 296 293 287 281 274 270 270 267 263 262 261 260 260 258 258 262 265 269 270 265 260 253 246 245 244 246 249 250 254 259 259 261 263 261 263 263 253 229 198 182 179 177 172 167 160 152 145 141 145
319 328 336 344 349 352 352 348 345 344 340 335 331 329 328 327 327 326 322 319 317 315 313 313 312 311 310 309 306 304 304 306 306 304 303 302 301 299 296 292 286 280 276 268 261 259 261 261 259 254 254 257 261 263 262 261 262 261 257 255 253 252 254 255 258 261 264 266 268 269 268 262 255 237 203 185 180 174 164 151 148 149 148 150 153
332 337 341 346 351 356 355 350 346 343 338 332 328 327 327 326 326 325 321 317 316 315 314 313 312 311 311 310 308 306 306 309 309 306 305 305 304 303 302 298 295 292 284 269 258 256 260 262 258 252 250 254 257 259 261 261 262 261 258 258 257 255 256 258 260 264 270 274 275 276 272 259 250 234 204 185 178 171 163 159 162 161 158 158 158
341 341 345 351 357 1 356 351 347 341 334 330 327 326 326 325 324 323 320 317 314 314 314 313 312 312 312 311 310 309 307 306 306 305 305 307 308 307 305 301 300 302 294 273 260 257 259 261 259 254 251 252 253 255 256 256 255 254 254 256 256 255 256 258 262 268 274 279 282 282 269 249 238 224 198 182 175 172 171 169 168 165 163 163 161
345 348 354 359 4 4 357 350 346 340 333 331 329 327 326 326 325 324 321 318 316 314 315 314 312 312 313 312 312 311 307 302 302 306 309 311 311 310 308 304 303 304 301 292 278 264 256 256 259 258 255 253 251 251 250 249 249 249 248 249 250 255 260 262 262 267 272 277 282 281 261 234 222 209 189 177 174 174 174 173 171 168 166 162 160
360 5 7 10 9 3 355 349 345 341 336 333 329 327 329 329 327 325 322 320 318 317 317 316 313 313 315 314 311 309 306 303 305 310 312 312 311 310 308 305 302 301 301 300 294 279 264 257 256 256 257 256 253 251 250 249 249 249 248 248 251 255 261 264 263 268 271 273 280 277 251 218 207 197 181 173 173 174 173 175 174 172 169 165 164
21 20 17 15 9 359 353 349 346 343 340 337 331 329 332 332 328 326 324 321 320 319 319 319 317 316 318 317 313 309 309 310 311 311 311 310 311 311 308 306 305 304 303 302 299 295 286 276 267 261 258 258 257 255 255 254 253 252 250 252 256 257 256 258 262 268 269 270 276 270 235 203 196 189 176 171 173 173 173 175 176 176 175 173 173
34 29 23 17 8 359 353 351 350 346 343 341 335 331 333 333 330 328 326 324 324 324 324 324 321 320 321 322 318 315 315 316 314 310 310 311 311 311 309 307 306 305 303 299 295 293 290 285 280 273 267 263 260 259 258 256 254 253 253 254 257 256 253 254 259 263 265 268 271 258 217 192 188 183 175 171 172 172 174 176 178 179 180 180 181
43 36 30 21 10 1 355 352 351 349 347 345 340 336 336 334 332 331 329 328 328 328 327 328 326 324 324 322 320 320 322 320 315 312 312 312 311 311 310 308 307 306 302 297 293 289 286 283 282 282 278 273 267 261 259 258 254 253 255 255 254 251 249 249 252 255 258 263 264 247 204 185 182 179 175 174 173 173 175 177 179 182 184 184 184
48 41 34 26 15 3 356 353 353 352 352 350 344 340 338 336 333 331 330 332 333 329 329 331 331 327 325 320 318 322 324 321 318 317 315 312 311 312 312 309 307 306 302 297 292 287 285 284 285 285 283 281 274 263 257 257 256 254 254 252 248 244 240 240 245 248 252 256 253 234 200 186 184 181 178 175 174 174 174 174 175 178 179 177 175
52 46 38 30 21 5 355 353 354 355 356 354 350 344 341 336 332 330 332 334 332 328 329 334 333 330 327 319 315 319 321 320 322 321 314 308 309 315 315 312 309 307 304 297 292 290 288 287 288 287 285 288 281 261 249 252 255 253 251 248 243 238 233 234 239 242 247 253 247 228 204 191 187 183 178 175 174 173 170 168 168 169 169 164 160
58 52 42 32 22 6 353 350 352 353 354 353 350 348 348 342 333 329 333 333 329 329 335 338 334 329 326 320 318 322 323 323 324 322 316 313 318 321 320 317 314 312 308 300 295 294 291 288 289 290 289 291 285 259 243 247 250 247 245 243 240 236 233 236 241 244 252 256 243 224 209 196 186 179 175 174 175 174 172 169 169 170 167 161 153
65 57 45 31 19 3 352 351 352 352 352 351 347 345 347 345 338 334 336 333 330 333 339 338 334 330 327 323 322 325 327 328 328 328 328 329 329 327 324 322 319 317 315 311 305 300 294 288 288 290 291 293 287 260 242 241 241 239 237 236 237 238 239 243 246 247 254 257 241 218 203 190 176 171 172 173 175 175 173 171 171 171 166 160 153
73 63 47 29 14 358 352 356 357 354 354 353 353 354 352 344 338 339 342 340 335 334 337 337 336 335 332 328 327 328 331 333 334 336 338 337 335 333 332 330 329 327 325 319 308 292 280 276 277 281 284 286 285 268 246 236 234 234 236 239 241 242 242 244 243 244 250 248 227 198 184 178 173 171 172 172 174 175 174 173 172 171 167 165 163
77 67 49 27 8 353 350 356 360 358 355 353 355 0 6 7 1 350 345 344 343 340 337 337 339 341 338 335 337 340 339 337 339 342 343 343 344 345 342 341 345 345 342 339 328 305 281 271 268 277 284 283 281 276 259 243 234 233 238 240 240 241 244 244 242 244 246 235 209 186 177 174 174 175 174 172 173 174 175 175 173 169 169 170 169
80 67 47 25 3 347 347 355 358 358 356 354 351 353 358 9 19 14 359 349 347 345 344 342 343 346 345 342 343 347 347 346 347 351 351 351 353 354 352 353 357 359 1 5 6 0 354 346 331 328 328 323 320 317 301 274 249 241 245 247 244 243 246 247 246 243 236 222 202 186 177 172 173 178 178 175 172 173 174 174 172 171 173 175 171
83 71 49 20 359 345 345 355 359 357 356 356 354 348 346 354 5 11 11 4 353 345 345 346 347 350 350 349 351 354 354 354 356 358 359 358 358 359 359 359 2 10 18 23 22 9 2 0 356 353 351 346 341 336 329 319 299 272 258 256 257 255 251 251 252 243 226 211 194 182 178 175 174 178 180 176 172 171 171 172 172 173 175 176 173
90 80 59 20 355 345 349 359 2 360 357 353 350 350 352 350 346 350 359 4 3 359 355 352 350 352 353 354 358 1 0 360 1 3 4 3 1 0 360 2 10 19 24 25 20 4 359 359 355 353 351 345 342 339 334 333 328 313 292 274 266 266 267 266 260 242 220 205 192 182 180 178 176 176 178 177 173 170 171 173 174 173 174 175 172
100 90 68 23 349 346 359 7 6 5 5 360 354 355 1 0 350 339 341 349 356 358 357 356 355 355 353 355 2 5 4 3 4 6 8 8 5 1 1 10 18 22 22 20 14 3 358 356 351 350 351 347 345 343 336 332 333 331 322 308 287 272 271 273 265 239 212 199 191 182 180 179 176 175 176 176 173 171 173 175 173 171 172 174 171
108 99 82 39 350 354 12 20 19 19 14 7 5 7 7 3 358 352 344 339 338 340 344 349 354 356 356 358 3 5 4 3 5 8 10 12 11 9 9 14 17 16 14 13 11 4 358 352 344 341 342 340 343 345 339 333 332 331 329 326 313 291 272 267 263 237 205 192 187 182 179 179 179 178 177 176 174 172 175 176 174 173 175 174 170
115 108 93 52 2 16 40 45 39 33 23 14 15 18 15 9 3 358 352 346 340 335 337 343 350 355 0 3 4 3 2 2 5 8 11 13 15 16 14 7 3 5 7 7 6 4 1 357 350 345 342 340 343 345 342 339 336 330 326 327 324 309 283 265 261 241 203 186 184 182 180 180 181 180 178 177 177 176 178 178 177 177 176 172 168
120 114 94 53 17 47 60 61 55 45 34 29 27 24 20 15 9 3 357 350 345 341 340 344 349 354 359 2 2 1 1 2 5 11 13 13 14 16 13 0 352 359 6 4 3 3 3 360 357 354 351 348 348 348 346 345 343 337 333 332 330 322 304 277 260 250 213 187 181 181 180 181 182 181 178 178 179 180 180 179 178 178 177 173 169
124 114 96 42 15 58 61 60 58 51 42 38 33 28 24 18 11 6 1 353 348 345 344 347 351 352 352 354 357 360 2 5 8 11 12 11 11 12 10 4 358 356 2 4 3 3 3 1 360 358 355 353 352 351 350 348 347 345 342 338 334 334 331 309 269 252 236 197 181 181 182 182 182 183 182 180 180 180 179 179 178 176 175 175 172
129 123 119 135 58 62 60 56 53 48 44 40 35 31 26 19 11 6 0 353 350 349 347 348 352 352 350 352 356 0 3 6 8 7 7 8 9 8 8 6 1 356 358 3 3 2 3 2 360 358 357 356 354 353 352 350 349 348 348 344 338 338 342 338 312 270 249 221 191 182 183 183 184 185 185 184 182 180 178 178 178 176 175 179 181
137 136 135 132 107 75 65 59 54 49 45 41 36 33 28 19 11 5 360 353 349 349 350 350 351 352 353 355 360 3 3 3 4 4 5 7 8 7 8 7 2 357 356 0 1 2 1 0 360 359 358 357 356 355 355 353 351 350 352 352 345 337 339 344 345 336 299 249 211 191 186 186 185 186 188 187 186 183 179 178 179 180 181 183 184
140 139 134 125 110 90 76 66 59 53 48 44 41 36 29 23 16 9 3 357 351 350 352 352 352 356 359 358 1 6 7 2 1 4 7 7 7 7 8 8 5 360 357 359 1 1 360 359 0 0 358 357 358 357 356 356 355 353 352 353 350 344 341 344 350 352 345 316 253 208 196 191 187 187 189 190 188 186 183 180 180 181 183 185 182
139 136 131 126 118 98 81 71 65 60 54 49 46 41 33 27 23 16 8 2 356 354 355 355 356 2 5 2 1 7 9 5 2 4 5 7 7 7 7 8 7 3 359 358 359 1 0 359 360 1 360 359 359 358 357 357 356 354 352 351 350 347 344 344 347 349 347 336 307 246 212 199 193 192 192 190 187 186 185 183 182 182 183 183 180
142 140 135 128 115 97 84 74 67 62 56 50 47 43 38 34 29 21 13 8 3 0 359 358 358 2 6 7 8 9 9 6 4 4 4 5 6 6 7 9 9 7 4 2 2 2 2 1 1 1 2 2 0 0 0 359 356 355 353 352 351 348 345 345 347 347 344 335 318 288 238 208 199 197 195 191 186 185 185 184 184 184 183 181 179
145 145 142 130 112 99 90 80 72 65 59 55 51 46 41 37 33 26 19 12 7 6 4 2 1 2 4 7 9 8 6 4 3 2 2 3 5 6 9 12 13 11 8 7 6 4 4 4 3 2 4 5 4 4 4 3 1 360 357 355 353 351 348 347 347 346 343 334 317 296 263 222 205 199 195 190 188 186 185 184 184 184 183 180 179
150 149 143 131 117 108 96 84 79 73 65 60 54 49 44 40 34 29 22 14 10 9 8 8 7 5 5 6 6 4 4 4 3 2 2 3 3 5 9 13 14 12 9 8 7 5 5 6 5 4 4 5 6 6 6 5 5 5 4 1 359 355 352 350 349 348 347 339 320 293 267 234 209 200 196 192 189 188 186 185 184 184 181 180 181
154 151 144 134 121 113 101 89 81 74 66 60 54 48 45 41 36 31 24 17 13 12 11 11 11 9 8 7 5 4 3 3 2 2 3 3 3 4 7 12 14 14 11 10 9 8 7 8 7 6 5 6 7 8 8 7 8 8 8 7 5 2 0 1 1 0 358 353 338 305 264 231 208 199 198 196 192 191 190 187 185 183 181 182 184
154 149 141 133 122 112 102 94 87 76 66 61 54 46 43 40 36 31 27 20 16 16 16 14 12 11 10 8 6 4 3 2 2 4 4 4 4 5 8 11 14 14 14 14 13 10 9 9 8 7 7 8 9 9 9 9 10 10 10 10 9 9 10 13 15 13 11 9 5 355 261 205 195 193 193 193 194 194 192 188 186 186 185 184 184
152 146 136 127 120 113 103 94 86 78 69 61 54 47 41 38 34 30 26 22 19 18 18 17 14 11 10 9 7 6 5 4 5 6 7 6 6 7 9 11 13 14 15 15 14 12 10 9 8 8 9 10 11 10 10 10 11 11 12 12 11 13 19 24 25 22 21 22 24 29 54 119 152 167 177 182 187 189 186 183 183 185 185 186 185
147 142 134 127 120 111 104 95 84 77 71 61 54 48 40 34 33 29 24 21 20 19 18 17 15 12 10 9 8 7 7 7 7 7 7 7 7 8 9 11 13 15 15 15 14 12 10 10 10 10 10 12 13 12 12 12 12 13 14 13 13 16 24 30 31 30 30 30 30 34 44 61 77 90 113 145 166 174 175 175 175 175 175 177 178
148 139 132 130 122 110 105 97 82 74 70 60 51 45 38 31 28 26 21 17 18 19 19 17 15 13 10 8 6 6 6 5 4 5 6 7 8 8 9 11 13 14 14 14 15 13 11 10 11 10 10 13 15 14 14 14 14 14 15 15 15 19 26 30 34 36 36 34 34 35 39 46 54 58 62 71 88 110 131 146 158 166 170 170 171
151 142 136 133 123 110 106 99 84 74 67 57 48 41 34 27 23 21 17 13 12 14 16 16 15 14 11 8 6 5 4 4 4 5 7 8 8 9 9 11 13 13 13 15 17 16 13 11 12 11 11 13 16 16 16 16 16 17 19 18 19 23 27 30 34 37 39 39 38 39 41 45 49 50 50 52 56 62 72 85 102 124 140 152 163